Time,TemperatureF,DewpointF,PressureIn,WindDirection,WindDirectionDegrees,WindSpeedMPH,WindSpeedGustMPH,Humidity,HourlyPrecipIn,Conditions,Clouds,dailyrainin,SoftwareType,DateUTC
2013-04-26 00:01:00,47.5,28.8,29.86,SW,231,9.0,12.0,48,0.00,,---,0.00,VWS V13.00,2013-04-26 06:01:00,
2013-04-26 00:06:00,47.4,29.2,29.86,SW,234,10.0,12.0,49,0.00,,---,0.00,VWS V13.00,2013-04-26 06:06:00,
2013-04-26 00:11:00,47.0,29.3,29.87,SW,225,7.0,11.0,50,0.00,,---,0.00,VWS V13.00,2013-04-26 06:11:00,
2013-04-26 00:16:00,46.6,29.5,29.87,SSW,201,3.0,11.0,51,0.00,,---,0.00,VWS V13.00,2013-04-26 06:16:00,
2013-04-26 00:21:00,46.2,29.6,29.87,SSW,203,1.0,11.0,52,0.00,,---,0.00,VWS V13.00,2013-04-26 06:21:00,
2013-04-26 00:26:00,46.0,28.9,29.89,SSW,203,0.0,11.0,51,0.00,,---,0.00,VWS V13.00,2013-04-26 06:26:00,
2013-04-26 00:31:00,45.8,29.7,29.89,SSW,203,2.0,11.0,53,0.00,,---,0.00,VWS V13.00,2013-04-26 06:31:00,
2013-04-26 00:36:00,44.9,28.8,29.89,SSW,203,2.0,11.0,53,0.00,,---,0.00,VWS V13.00,2013-04-26 06:36:00,
2013-04-26 00:41:00,44.5,29.4,29.89,SSW,203,0.0,0.0,55,0.00,,---,0.00,VWS V13.00,2013-04-26 06:41:00,
2013-04-26 00:46:00,43.9,28.8,29.89,SSW,203,2.0,4.0,55,0.00,,---,0.00,VWS V13.00,2013-04-26 06:46:00,
2013-04-26 00:51:00,43.4,29.2,29.89,SSW,203,1.0,4.0,57,0.00,,---,0.00,VWS V13.00,2013-04-26 06:51:00,
2013-04-26 00:56:00,43.0,29.2,29.90,SSW,203,1.0,5.0,58,0.00,,---,0.00,VWS V13.00,2013-04-26 06:56:00,
2013-04-26 01:01:00,42.5,29.2,29.90,SSW,203,2.0,5.0,59,0.00,,---,0.00,VWS V13.00,2013-04-26 07:01:00,
2013-04-26 01:06:00,42.0,29.1,29.90,SSW,203,1.0,5.0,60,0.00,,---,0.00,VWS V13.00,2013-04-26 07:06:00,
2013-04-26 01:11:00,41.4,29.0,29.91,SSW,203,2.0,3.0,61,0.00,,---,0.00,VWS V13.00,2013-04-26 07:11:00,
2013-04-26 01:16:00,40.9,28.9,29.91,SSW,203,4.0,5.0,62,0.00,,---,0.00,VWS V13.00,2013-04-26 07:16:00,
2013-04-26 01:21:00,40.2,28.6,29.91,SSW,203,3.0,5.0,63,0.00,,---,0.00,VWS V13.00,2013-04-26 07:21:00,
2013-04-26 01:26:00,39.8,29.0,29.92,SSW,203,3.0,5.0,65,0.00,,---,0.00,VWS V13.00,2013-04-26 07:26:00,
2013-04-26 01:31:00,39.1,28.7,29.92,SSW,203,3.0,5.0,66,0.00,,---,0.00,VWS V13.00,2013-04-26 07:31:00,
2013-04-26 01:36:00,38.7,28.7,29.92,SSW,203,4.0,5.0,67,0.00,,---,0.00,VWS V13.00,2013-04-26 07:36:00,
2013-04-26 01:41:00,38.5,28.5,29.92,SSW,203,3.0,4.0,67,0.00,,---,0.00,VWS V13.00,2013-04-26 07:41:00,
2013-04-26 01:46:00,38.6,28.2,29.92,SSW,203,5.0,5.0,66,0.00,,---,0.00,VWS V13.00,2013-04-26 07:46:00,
2013-04-26 01:51:00,38.4,28.4,29.92,SSW,203,2.0,6.0,67,0.00,,---,0.00,VWS V13.00,2013-04-26 07:51:00,
2013-04-26 01:56:00,37.6,28.4,29.93,SSW,201,5.0,6.0,69,0.00,,---,0.00,VWS V13.00,2013-04-26 07:56:00,
2013-04-26 02:01:00,36.8,28.0,29.93,SSE,168,7.0,7.0,70,0.00,,---,0.00,VWS V13.00,2013-04-26 08:01:00,
2013-04-26 02:06:00,36.1,27.6,29.93,SSE,167,3.0,7.0,71,0.00,,---,0.00,VWS V13.00,2013-04-26 08:06:00,
2013-04-26 02:11:00,35.6,27.8,29.94,SSE,159,6.0,9.0,73,0.00,,---,0.00,VWS V13.00,2013-04-26 08:11:00,
2013-04-26 02:16:00,34.9,27.1,29.94,SSE,157,6.0,9.0,73,0.00,,---,0.00,VWS V13.00,2013-04-26 08:16:00,
2013-04-26 02:21:00,34.4,27.0,29.94,SSE,157,7.0,9.0,74,0.00,,---,0.00,VWS V13.00,2013-04-26 08:21:00,
2013-04-26 02:26:00,34.1,27.0,29.95,SSE,154,6.0,9.0,75,0.00,,---,0.00,VWS V13.00,2013-04-26 08:26:00,
2013-04-26 02:31:00,33.7,27.0,29.95,SSE,153,5.0,9.0,76,0.00,,---,0.00,VWS V13.00,2013-04-26 08:31:00,
2013-04-26 02:36:00,33.8,27.0,29.95,SSE,153,5.0,9.0,76,0.00,,---,0.00,VWS V13.00,2013-04-26 08:36:00,
2013-04-26 02:41:00,33.7,26.6,29.96,SSE,153,6.0,8.0,75,0.00,,---,0.00,VWS V13.00,2013-04-26 08:41:00,
2013-04-26 02:46:00,33.5,26.8,29.96,SSE,153,6.0,8.0,76,0.00,,---,0.00,VWS V13.00,2013-04-26 08:46:00,
2013-04-26 02:51:00,33.8,26.7,29.96,SSE,153,5.0,9.0,75,0.00,,---,0.00,VWS V13.00,2013-04-26 08:51:00,
2013-04-26 02:56:00,34.1,27.0,29.96,SSE,153,6.0,9.0,75,0.00,,---,0.00,VWS V13.00,2013-04-26 08:56:00,
2013-04-26 03:01:00,34.4,26.7,29.96,SSE,151,6.0,9.0,73,0.00,,---,0.00,VWS V13.00,2013-04-26 09:01:00,
2013-04-26 03:06:00,35.0,26.9,29.96,SSE,148,6.0,9.0,72,0.00,,---,0.00,VWS V13.00,2013-04-26 09:06:00,
2013-04-26 03:11:00,35.2,26.8,29.96,SSE,149,6.0,8.0,71,0.00,,---,0.00,VWS V13.00,2013-04-26 09:11:00,
2013-04-26 03:16:00,34.7,26.6,29.96,SSE,149,7.0,8.0,72,0.00,,---,0.00,VWS V13.00,2013-04-26 09:16:00,
2013-04-26 03:21:00,34.4,26.7,29.96,SSE,152,5.0,8.0,73,0.00,,---,0.00,VWS V13.00,2013-04-26 09:21:00,
2013-04-26 03:26:00,34.3,26.6,29.96,SSE,161,7.0,8.0,73,0.00,,---,0.00,VWS V13.00,2013-04-26 09:26:00,
2013-04-26 03:31:00,34.3,26.6,29.96,SSE,161,6.0,9.0,73,0.00,,---,0.00,VWS V13.00,2013-04-26 09:31:00,
2013-04-26 03:36:00,34.3,26.6,29.96,SSE,162,5.0,9.0,73,0.00,,---,0.00,VWS V13.00,2013-04-26 09:36:00,
2013-04-26 03:41:00,34.1,26.0,29.97,SSE,161,7.0,8.0,72,0.00,,---,0.00,VWS V13.00,2013-04-26 09:41:00,
2013-04-26 03:46:00,33.5,25.8,29.97,SSE,156,7.0,9.0,73,0.00,,---,0.00,VWS V13.00,2013-04-26 09:46:00,
2013-04-26 03:51:00,32.6,25.6,29.97,SE,146,7.0,9.0,75,0.00,,---,0.00,VWS V13.00,2013-04-26 09:51:00,
2013-04-26 03:56:00,32.1,25.4,29.97,SE,146,6.0,9.0,76,0.00,,---,0.00,VWS V13.00,2013-04-26 09:56:00,
2013-04-26 04:01:00,32.0,25.6,29.97,SSE,148,5.0,9.0,77,0.00,,---,0.00,VWS V13.00,2013-04-26 10:01:00,
2013-04-26 04:06:00,32.3,25.6,29.97,SSE,148,4.0,9.0,76,0.00,,---,0.00,VWS V13.00,2013-04-26 10:06:00,
2013-04-26 04:11:00,32.6,25.9,29.98,SSE,149,5.0,6.0,76,0.00,,---,0.00,VWS V13.00,2013-04-26 10:11:00,
2013-04-26 04:16:00,33.1,26.0,29.98,SSE,153,5.0,6.0,75,0.00,,---,0.00,VWS V13.00,2013-04-26 10:16:00,
2013-04-26 04:21:00,34.0,26.3,29.98,SSE,156,5.0,6.0,73,0.00,,---,0.00,VWS V13.00,2013-04-26 10:21:00,
2013-04-26 04:26:00,34.4,26.3,29.97,SSE,156,3.0,6.0,72,0.00,,---,0.00,VWS V13.00,2013-04-26 10:26:00,
2013-04-26 04:31:00,34.4,26.0,29.97,SSE,156,3.0,6.0,71,0.00,,---,0.00,VWS V13.00,2013-04-26 10:31:00,
2013-04-26 04:36:00,34.4,26.0,29.97,SSE,156,3.0,6.0,71,0.00,,---,0.00,VWS V13.00,2013-04-26 10:36:00,
2013-04-26 04:41:00,33.4,25.4,29.97,SSE,156,6.0,8.0,72,0.00,,---,0.00,VWS V13.00,2013-04-26 10:41:00,
2013-04-26 04:46:00,32.3,25.3,29.97,SSE,155,4.0,8.0,75,0.00,,---,0.00,VWS V13.00,2013-04-26 10:46:00,
2013-04-26 04:51:00,31.4,24.7,29.97,SSE,155,6.0,8.0,76,0.00,,---,0.00,VWS V13.00,2013-04-26 10:51:00,
2013-04-26 04:56:00,30.5,24.8,29.99,SSE,153,7.0,8.0,79,0.00,,---,0.00,VWS V13.00,2013-04-26 10:56:00,
2013-04-26 05:01:00,29.9,24.8,29.99,SSE,149,9.0,10.0,81,0.00,,---,0.00,VWS V13.00,2013-04-26 11:01:00,
2013-04-26 05:06:00,29.5,24.4,29.99,SSE,149,9.0,10.0,81,0.00,,---,0.00,VWS V13.00,2013-04-26 11:06:00,
2013-04-26 05:11:00,30.0,25.2,30.00,SE,141,6.0,8.0,82,0.00,,---,0.00,VWS V13.00,2013-04-26 11:11:00,
2013-04-26 05:16:00,30.7,25.3,30.00,SSE,153,4.0,9.0,80,0.00,,---,0.00,VWS V13.00,2013-04-26 11:16:00,
2013-04-26 05:21:00,31.0,25.3,30.00,SSE,167,5.0,9.0,79,0.00,,---,0.00,VWS V13.00,2013-04-26 11:21:00,
2013-04-26 05:26:00,31.4,25.4,30.00,SSE,157,7.0,9.0,78,0.00,,---,0.00,VWS V13.00,2013-04-26 11:26:00,
2013-04-26 05:31:00,31.5,25.4,30.00,SSE,155,7.0,9.0,78,0.00,,---,0.00,VWS V13.00,2013-04-26 11:31:00,
2013-04-26 05:36:00,31.8,25.4,30.00,SSE,155,4.0,9.0,77,0.00,,---,0.00,VWS V13.00,2013-04-26 11:36:00,
2013-04-26 05:41:00,32.2,25.5,29.99,SSE,155,5.0,6.0,76,0.00,,---,0.00,VWS V13.00,2013-04-26 11:41:00,
2013-04-26 05:46:00,32.1,25.4,29.99,SE,144,6.0,9.0,76,0.00,,---,0.00,VWS V13.00,2013-04-26 11:46:00,
2013-04-26 05:51:00,31.1,25.0,29.99,SE,144,7.0,9.0,78,0.00,,---,0.00,VWS V13.00,2013-04-26 11:51:00,
2013-04-26 05:56:00,31.0,25.0,30.00,SSE,149,7.0,11.0,78,0.00,,---,0.00,VWS V13.00,2013-04-26 11:56:00,
2013-04-26 06:01:00,31.2,25.5,30.00,SE,134,9.0,12.0,79,0.00,,---,0.00,VWS V13.00,2013-04-26 12:01:00,
2013-04-26 06:06:00,31.2,25.1,30.00,SSE,159,8.0,12.0,78,0.00,,---,0.00,VWS V13.00,2013-04-26 12:06:00,
2013-04-26 06:11:00,31.3,25.6,30.01,SSE,159,9.0,12.0,79,0.00,,---,0.00,VWS V13.00,2013-04-26 12:11:00,
2013-04-26 06:16:00,31.9,25.8,30.01,SSE,153,11.0,12.0,78,0.00,,---,0.00,VWS V13.00,2013-04-26 12:16:00,
2013-04-26 06:21:00,32.6,26.2,30.01,SSE,154,10.0,12.0,77,0.00,,---,0.00,VWS V13.00,2013-04-26 12:21:00,
2013-04-26 06:26:00,32.9,26.2,30.01,SSE,160,10.0,12.0,76,0.00,,---,0.00,VWS V13.00,2013-04-26 12:26:00,
2013-04-26 06:31:00,33.0,26.3,30.01,SSE,157,9.0,12.0,76,0.00,,---,0.00,VWS V13.00,2013-04-26 12:31:00,
2013-04-26 06:36:00,33.2,26.1,30.01,SSE,155,5.0,12.0,75,0.00,,---,0.00,VWS V13.00,2013-04-26 12:36:00,
2013-04-26 06:41:00,33.3,26.2,30.01,SSE,154,7.0,9.0,75,0.00,,---,0.00,VWS V13.00,2013-04-26 12:41:00,
2013-04-26 06:46:00,33.2,26.1,30.01,SSE,153,7.0,9.0,75,0.00,,---,0.00,VWS V13.00,2013-04-26 12:46:00,
2013-04-26 06:51:00,33.3,26.6,30.01,SSE,152,5.0,9.0,76,0.00,,---,0.00,VWS V13.00,2013-04-26 12:51:00,
2013-04-26 06:56:00,33.4,26.7,30.02,SSE,152,6.0,9.0,76,0.00,,---,0.00,VWS V13.00,2013-04-26 12:56:00,
2013-04-26 07:01:00,34.0,27.2,30.02,SSE,153,7.0,9.0,76,0.00,,---,0.00,VWS V13.00,2013-04-26 13:01:00,
2013-04-26 07:06:00,34.4,27.0,30.02,SSE,152,4.0,9.0,74,0.00,,---,0.00,VWS V13.00,2013-04-26 13:06:00,
2013-04-26 07:11:00,34.3,27.2,30.02,SSE,152,6.0,8.0,75,0.00,,---,0.00,VWS V13.00,2013-04-26 13:11:00,
2013-04-26 07:16:00,34.4,27.3,30.02,SSE,152,6.0,9.0,75,0.00,,---,0.00,VWS V13.00,2013-04-26 13:16:00,
2013-04-26 07:21:00,34.8,28.0,30.02,SSE,153,5.0,9.0,76,0.00,,---,0.00,VWS V13.00,2013-04-26 13:21:00,
2013-04-26 07:26:00,35.4,28.3,30.02,SSE,150,6.0,9.0,75,0.00,,---,0.00,VWS V13.00,2013-04-26 13:26:00,
2013-04-26 07:31:00,35.7,28.6,30.02,SSE,152,5.0,9.0,75,0.00,,---,0.00,VWS V13.00,2013-04-26 13:31:00,
2013-04-26 07:36:00,36.4,29.2,30.02,SSE,154,6.0,9.0,75,0.00,,---,0.00,VWS V13.00,2013-04-26 13:36:00,
2013-04-26 07:41:00,37.5,29.3,30.01,SSE,149,6.0,7.0,72,0.00,,---,0.00,VWS V13.00,2013-04-26 13:41:00,
2013-04-26 07:46:00,38.7,30.1,30.01,SSE,149,5.0,7.0,71,0.00,,---,0.00,VWS V13.00,2013-04-26 13:46:00,
2013-04-26 07:51:00,39.6,31.0,30.01,SSE,150,4.0,8.0,71,0.00,,---,0.00,VWS V13.00,2013-04-26 13:51:00,
2013-04-26 07:56:00,40.6,31.2,30.02,SSE,150,4.0,8.0,69,0.00,,---,0.00,VWS V13.00,2013-04-26 13:56:00,
2013-04-26 08:01:00,41.2,31.8,30.02,SSE,150,5.0,8.0,69,0.00,,---,0.00,VWS V13.00,2013-04-26 14:01:00,
2013-04-26 08:06:00,42.1,31.2,30.02,SSE,150,7.0,9.0,65,0.00,,---,0.00,VWS V13.00,2013-04-26 14:06:00,
2013-04-26 08:11:00,43.1,31.8,30.02,SSE,150,4.0,6.0,64,0.00,,---,0.00,VWS V13.00,2013-04-26 14:11:00,
2013-04-26 08:16:00,44.1,32.3,30.02,SSE,150,5.0,7.0,63,0.00,,---,0.00,VWS V13.00,2013-04-26 14:16:00,
2013-04-26 08:21:00,44.9,32.7,30.02,SSE,149,4.0,7.0,62,0.00,,---,0.00,VWS V13.00,2013-04-26 14:21:00,
2013-04-26 08:26:00,45.5,32.8,30.01,SSE,149,4.0,7.0,61,0.00,,---,0.00,VWS V13.00,2013-04-26 14:26:00,
2013-04-26 08:31:00,46.3,33.6,30.01,SSE,149,3.0,7.0,61,0.00,,---,0.00,VWS V13.00,2013-04-26 14:31:00,
2013-04-26 08:36:00,47.2,33.2,30.01,SSE,149,3.0,7.0,58,0.00,,---,0.00,VWS V13.00,2013-04-26 14:36:00,
2013-04-26 08:41:00,47.9,32.1,30.00,SSE,149,3.0,3.0,54,0.00,,---,0.00,VWS V13.00,2013-04-26 14:41:00,
2013-04-26 08:46:00,48.5,30.7,30.00,SSE,149,0.0,3.0,50,0.00,,---,0.00,VWS V13.00,2013-04-26 14:46:00,
2013-04-26 08:51:00,49.0,32.6,30.00,SSE,149,0.0,3.0,53,0.00,,---,0.00,VWS V13.00,2013-04-26 14:51:00,
2013-04-26 08:56:00,49.7,32.8,30.00,SSE,149,1.0,3.0,52,0.00,,---,0.00,VWS V13.00,2013-04-26 14:56:00,
2013-04-26 09:01:00,50.6,32.7,30.00,SSW,194,3.0,5.0,50,0.00,,---,0.00,VWS V13.00,2013-04-26 15:01:00,
2013-04-26 09:05:00,51.4,31.9,30.00,West,278,5.0,6.0,47,0.00,,---,0.00,VWS V13.00,2013-04-26 15:05:00,
2013-04-26 09:10:00,52.2,32.1,29.99,West,278,10.0,11.0,46,0.00,,---,0.00,VWS V13.00,2013-04-26 15:10:00,
2013-04-26 09:15:00,53.2,31.9,29.99,West,277,11.0,15.0,44,0.00,,---,0.00,VWS V13.00,2013-04-26 15:15:00,
2013-04-26 09:20:00,54.1,31.5,29.99,West,259,12.0,16.0,42,0.00,,---,0.00,VWS V13.00,2013-04-26 15:20:00,
2013-04-26 09:25:00,54.7,30.9,29.98,WSW,254,6.0,17.0,40,0.00,,---,0.00,VWS V13.00,2013-04-26 15:25:00,
2013-04-26 09:30:00,55.2,31.9,29.98,WSW,258,10.0,17.0,41,0.00,,---,0.00,VWS V13.00,2013-04-26 15:30:00,
2013-04-26 09:35:00,55.7,32.4,29.98,West,275,7.0,17.0,41,0.00,,---,0.00,VWS V13.00,2013-04-26 15:35:00,
2013-04-26 09:40:00,56.0,31.4,29.97,WSW,254,9.0,14.0,39,0.00,,---,0.00,VWS V13.00,2013-04-26 15:40:00,
2013-04-26 09:45:00,56.2,31.6,29.97,West,262,10.0,16.0,39,0.00,,---,0.00,VWS V13.00,2013-04-26 15:45:00,
2013-04-26 09:50:00,56.5,33.1,29.97,West,259,8.0,16.0,41,0.00,,---,0.00,VWS V13.00,2013-04-26 15:50:00,
2013-04-26 09:55:00,56.8,32.8,29.96,West,279,12.0,16.0,40,0.00,,---,0.00,VWS V13.00,2013-04-26 15:55:00,
2013-04-26 10:00:00,57.2,32.5,29.96,West,265,14.0,17.0,39,0.00,,---,0.00,VWS V13.00,2013-04-26 16:00:00,
2013-04-26 10:05:00,57.5,32.1,29.96,West,266,7.0,17.0,38,0.00,,---,0.00,VWS V13.00,2013-04-26 16:05:00,
2013-04-26 10:10:00,57.9,31.8,29.95,West,263,11.0,14.0,37,0.00,,---,0.00,VWS V13.00,2013-04-26 16:10:00,
2013-04-26 10:15:00,58.2,31.4,29.95,WSW,237,9.0,16.0,36,0.00,,---,0.00,VWS V13.00,2013-04-26 16:15:00,
2013-04-26 10:20:00,58.4,32.2,29.95,West,275,13.0,17.0,37,0.00,,---,0.00,VWS V13.00,2013-04-26 16:20:00,
2013-04-26 10:25:00,58.5,31.0,29.95,West,274,14.0,19.0,35,0.00,,---,0.00,VWS V13.00,2013-04-26 16:25:00,
2013-04-26 10:30:00,58.7,31.8,29.95,West,265,16.0,20.0,36,0.00,,---,0.00,VWS V13.00,2013-04-26 16:30:00,
2013-04-26 10:35:00,59.0,32.1,29.95,WNW,290,11.0,20.0,36,0.00,,---,0.00,VWS V13.00,2013-04-26 16:35:00,
2013-04-26 10:40:00,59.0,31.4,29.95,WNW,295,6.0,14.0,35,0.00,,---,0.00,VWS V13.00,2013-04-26 16:40:00,
2013-04-26 10:45:00,59.4,32.5,29.95,WSW,241,6.0,16.0,36,0.00,,---,0.00,VWS V13.00,2013-04-26 16:45:00,
2013-04-26 10:50:00,59.7,31.3,29.95,West,279,12.0,20.0,34,0.00,,---,0.00,VWS V13.00,2013-04-26 16:50:00,
2013-04-26 10:55:00,60.0,32.3,29.94,SW,228,10.0,20.0,35,0.00,,---,0.00,VWS V13.00,2013-04-26 16:55:00,
2013-04-26 11:00:00,60.2,31.0,29.94,WSW,250,13.0,21.0,33,0.00,,---,0.00,VWS V13.00,2013-04-26 17:00:00,
2013-04-26 11:05:00,60.2,30.2,29.94,WNW,287,17.0,22.0,32,0.00,,---,0.00,VWS V13.00,2013-04-26 17:05:00,
2013-04-26 11:10:00,60.3,30.3,29.94,West,263,14.0,18.0,32,0.00,,---,0.00,VWS V13.00,2013-04-26 17:10:00,
2013-04-26 11:15:00,60.6,30.6,29.94,SW,217,12.0,18.0,32,0.00,,---,0.00,VWS V13.00,2013-04-26 17:15:00,
2013-04-26 11:20:00,60.7,30.7,29.94,WNW,292,13.0,25.0,32,0.00,,---,0.00,VWS V13.00,2013-04-26 17:20:00,
2013-04-26 11:25:00,61.0,31.7,29.94,West,265,10.0,25.0,33,0.00,,---,0.00,VWS V13.00,2013-04-26 17:25:00,
2013-04-26 11:30:00,61.6,32.2,29.94,West,275,16.0,25.0,33,0.00,,---,0.00,VWS V13.00,2013-04-26 17:30:00,
2013-04-26 11:35:00,61.7,30.0,29.94,West,260,18.0,25.0,30,0.00,,---,0.00,VWS V13.00,2013-04-26 17:35:00,
2013-04-26 11:40:00,61.4,31.3,29.93,West,271,17.0,19.0,32,0.00,,---,0.00,VWS V13.00,2013-04-26 17:40:00,
2013-04-26 11:45:00,61.6,30.7,29.93,WNW,286,12.0,20.0,31,0.00,,---,0.00,VWS V13.00,2013-04-26 17:45:00,
2013-04-26 11:50:00,61.6,30.7,29.93,WNW,295,16.0,21.0,31,0.00,,---,0.00,VWS V13.00,2013-04-26 17:50:00,
2013-04-26 11:55:00,61.6,31.5,29.95,West,269,19.0,21.0,32,0.00,,---,0.00,VWS V13.00,2013-04-26 17:55:00,
2013-04-26 12:00:00,61.7,31.6,29.95,WSW,253,12.0,21.0,32,0.00,,---,0.00,VWS V13.00,2013-04-26 18:00:00,
2013-04-26 12:05:00,61.9,31.0,29.95,WSW,244,15.0,22.0,31,0.00,,---,0.00,VWS V13.00,2013-04-26 18:05:00,
2013-04-26 12:10:00,62.0,30.2,29.95,WSW,247,14.0,22.0,30,0.00,,---,0.00,VWS V13.00,2013-04-26 18:10:00,
2013-04-26 12:15:00,62.2,31.2,29.95,WSW,243,13.0,22.0,31,0.00,,---,0.00,VWS V13.00,2013-04-26 18:15:00,
2013-04-26 12:20:00,62.2,30.4,29.95,West,269,10.0,22.0,30,0.00,,---,0.00,VWS V13.00,2013-04-26 18:20:00,
2013-04-26 12:25:00,62.5,31.5,29.94,WSW,250,10.0,22.0,31,0.00,,---,0.00,VWS V13.00,2013-04-26 18:25:00,
2013-04-26 12:30:00,62.7,31.6,29.94,West,273,15.0,22.0,31,0.00,,---,0.00,VWS V13.00,2013-04-26 18:30:00,
2013-04-26 12:35:00,62.8,32.5,29.94,WSW,257,9.0,22.0,32,0.00,,---,0.00,VWS V13.00,2013-04-26 18:35:00,
2013-04-26 12:40:00,63.0,31.9,29.93,NW,304,15.0,15.0,31,0.00,,---,0.00,VWS V13.00,2013-04-26 18:40:00,
2013-04-26 12:45:00,63.1,29.5,29.93,WNW,294,5.0,18.0,28,0.00,,---,0.00,VWS V13.00,2013-04-26 18:45:00,
2013-04-26 12:50:00,63.3,32.2,29.93,WNW,286,11.0,19.0,31,0.00,,---,0.00,VWS V13.00,2013-04-26 18:50:00,
2013-04-26 12:55:00,63.9,31.9,29.94,West,273,8.0,19.0,30,0.00,,---,0.00,VWS V13.00,2013-04-26 18:55:00,
2013-04-26 13:00:00,63.8,31.8,29.94,WNW,298,16.0,19.0,30,0.00,,---,0.00,VWS V13.00,2013-04-26 19:00:00,
2013-04-26 13:05:00,63.9,31.9,29.94,West,281,16.0,24.0,30,0.00,,---,0.00,VWS V13.00,2013-04-26 19:05:00,
2013-04-26 13:10:00,64.0,31.1,29.93,WNW,284,13.0,22.0,29,0.00,,---,0.00,VWS V13.00,2013-04-26 19:10:00,
2013-04-26 13:15:00,64.5,32.4,29.93,West,271,12.0,22.0,30,0.00,,---,0.00,VWS V13.00,2013-04-26 19:15:00,
2013-04-26 13:20:00,64.7,31.7,29.93,West,269,7.0,22.0,29,0.00,,---,0.00,VWS V13.00,2013-04-26 19:20:00,
2013-04-26 13:25:00,64.8,32.7,29.92,SW,217,10.0,22.0,30,0.00,,---,0.00,VWS V13.00,2013-04-26 19:25:00,
2013-04-26 13:30:00,64.8,31.8,29.92,WSW,246,9.0,22.0,29,0.00,,---,0.00,VWS V13.00,2013-04-26 19:30:00,
2013-04-26 13:35:00,64.8,31.8,29.92,NW,308,12.0,22.0,29,0.00,,---,0.00,VWS V13.00,2013-04-26 19:35:00,
2013-04-26 13:40:00,64.9,31.9,29.92,NW,317,18.0,19.0,29,0.00,,---,0.00,VWS V13.00,2013-04-26 19:40:00,
2013-04-26 13:45:00,64.9,31.0,29.92,West,272,12.0,22.0,28,0.00,,---,0.00,VWS V13.00,2013-04-26 19:45:00,
2013-04-26 13:50:00,65.4,31.5,29.92,WNW,296,17.0,22.0,28,0.00,,---,0.00,VWS V13.00,2013-04-26 19:50:00,
2013-04-26 13:55:00,65.4,31.5,29.95,West,280,11.0,22.0,28,0.00,,---,0.00,VWS V13.00,2013-04-26 19:55:00,
2013-04-26 14:00:00,65.7,31.7,29.95,NW,311,5.0,22.0,28,0.00,,---,0.00,VWS V13.00,2013-04-26 20:00:00,
2013-04-26 14:05:00,65.9,32.8,29.95,WNW,294,19.0,22.0,29,0.00,,---,0.00,VWS V13.00,2013-04-26 20:05:00,
2013-04-26 14:10:00,65.8,32.7,29.94,West,267,8.0,13.0,29,0.00,,---,0.00,VWS V13.00,2013-04-26 20:10:00,
2013-04-26 14:15:00,65.7,29.9,29.94,WNW,292,2.0,16.0,26,0.00,,---,0.00,VWS V13.00,2013-04-26 20:15:00,
2013-04-26 14:20:00,65.4,31.5,29.94,WNW,290,10.0,16.0,28,0.00,,---,0.00,VWS V13.00,2013-04-26 20:20:00,
2013-04-26 14:25:00,66.1,34.6,29.93,West,281,11.0,16.0,31,0.00,,---,0.00,VWS V13.00,2013-04-26 20:25:00,
2013-04-26 14:30:00,66.5,32.4,29.93,NW,319,13.0,16.0,28,0.00,,---,0.00,VWS V13.00,2013-04-26 20:30:00,
2013-04-26 14:35:00,66.5,34.1,29.93,WSW,257,16.0,18.0,30,0.00,,---,0.00,VWS V13.00,2013-04-26 20:35:00,
2013-04-26 14:40:00,66.6,32.5,29.93,West,273,6.0,14.0,28,0.00,,---,0.00,VWS V13.00,2013-04-26 20:40:00,
2013-04-26 14:45:00,66.7,30.8,29.93,NW,310,10.0,14.0,26,0.00,,---,0.00,VWS V13.00,2013-04-26 20:45:00,
2013-04-26 14:50:00,67.1,32.9,29.93,NNW,331,15.0,18.0,28,0.00,,---,0.00,VWS V13.00,2013-04-26 20:50:00,
2013-04-26 14:55:00,67.2,31.2,29.92,WNW,302,9.0,18.0,26,0.00,,---,0.00,VWS V13.00,2013-04-26 20:55:00,
2013-04-26 15:00:00,67.3,32.2,29.92,WNW,286,24.0,25.0,27,0.00,,---,0.00,VWS V13.00,2013-04-26 21:00:00,
2013-04-26 15:05:00,67.4,31.4,29.92,WNW,286,14.0,25.0,26,0.00,,---,0.00,VWS V13.00,2013-04-26 21:05:00,
2013-04-26 15:10:00,67.9,31.8,29.91,WNW,283,18.0,19.0,26,0.00,,---,0.00,VWS V13.00,2013-04-26 21:10:00,
2013-04-26 15:15:00,67.6,31.5,29.91,WNW,284,15.0,23.0,26,0.00,,---,0.00,VWS V13.00,2013-04-26 21:15:00,
2013-04-26 15:20:00,67.8,31.7,29.91,WNW,288,18.0,27.0,26,0.00,,---,0.00,VWS V13.00,2013-04-26 21:20:00,
2013-04-26 15:25:00,67.6,30.6,29.91,WNW,300,18.0,27.0,25,0.00,,---,0.00,VWS V13.00,2013-04-26 21:25:00,
2013-04-26 15:30:00,67.5,30.5,29.91,WNW,287,10.0,27.0,25,0.00,,---,0.00,VWS V13.00,2013-04-26 21:30:00,
2013-04-26 15:35:00,68.0,31.9,29.91,WNW,285,16.0,27.0,26,0.00,,---,0.00,VWS V13.00,2013-04-26 21:35:00,
2013-04-26 15:40:00,68.0,31.9,29.90,West,277,13.0,14.0,26,0.00,,---,0.00,VWS V13.00,2013-04-26 21:40:00,
2013-04-26 15:45:00,68.1,32.9,29.90,NW,311,7.0,18.0,27,0.00,,---,0.00,VWS V13.00,2013-04-26 21:45:00,
2013-04-26 15:50:00,68.5,32.3,29.90,West,281,11.0,18.0,26,0.00,,---,0.00,VWS V13.00,2013-04-26 21:50:00,
2013-04-26 15:55:00,68.4,32.2,29.90,NW,306,9.0,18.0,26,0.00,,---,0.00,VWS V13.00,2013-04-26 21:55:00,
2013-04-26 16:00:00,67.9,29.8,29.90,NNW,330,13.0,21.0,24,0.00,,---,0.00,VWS V13.00,2013-04-26 22:00:00,
2013-04-26 16:05:00,67.9,31.8,29.90,NW,306,13.0,21.0,26,0.00,,---,0.00,VWS V13.00,2013-04-26 22:05:00,
2013-04-26 16:10:00,67.9,32.7,29.90,WNW,284,11.0,13.0,27,0.00,,---,0.00,VWS V13.00,2013-04-26 22:10:00,
2013-04-26 16:15:00,68.4,31.2,29.90,WSW,251,9.0,19.0,25,0.00,,---,0.00,VWS V13.00,2013-04-26 22:15:00,
2013-04-26 16:20:00,68.5,31.3,29.90,NW,306,18.0,24.0,25,0.00,,---,0.00,VWS V13.00,2013-04-26 22:20:00,
2013-04-26 16:25:00,68.3,30.1,29.90,West,280,14.0,24.0,24,0.00,,---,0.00,VWS V13.00,2013-04-26 22:25:00,
2013-04-26 16:30:00,68.4,31.2,29.90,WNW,294,14.0,24.0,25,0.00,,---,0.00,VWS V13.00,2013-04-26 22:30:00,
2013-04-26 16:35:00,68.3,30.1,29.90,West,269,19.0,25.0,24,0.00,,---,0.00,VWS V13.00,2013-04-26 22:35:00,
2013-04-26 16:40:00,68.4,30.2,29.89,West,261,14.0,20.0,24,0.00,,---,0.00,VWS V13.00,2013-04-26 22:40:00,
2013-04-26 16:45:00,68.3,31.1,29.89,West,270,16.0,20.0,25,0.00,,---,0.00,VWS V13.00,2013-04-26 22:45:00,
2013-04-26 16:50:00,68.6,32.4,29.89,West,279,16.0,20.0,26,0.00,,---,0.00,VWS V13.00,2013-04-26 22:50:00,
2013-04-26 16:55:00,68.6,30.4,29.90,NW,313,18.0,20.0,24,0.00,,---,0.00,VWS V13.00,2013-04-26 22:55:00,
2013-04-26 17:00:00,68.6,31.4,29.90,WNW,286,15.0,25.0,25,0.00,,---,0.00,VWS V13.00,2013-04-26 23:00:00,
2013-04-26 17:05:00,68.6,32.4,29.90,West,281,13.0,29.0,26,0.00,,---,0.00,VWS V13.00,2013-04-26 23:05:00,
2013-04-26 17:10:00,68.6,31.4,29.90,WNW,292,17.0,19.0,25,0.00,,---,0.00,VWS V13.00,2013-04-26 23:10:00,
2013-04-26 17:15:00,68.8,32.5,29.90,NW,304,14.0,20.0,26,0.00,,---,0.00,VWS V13.00,2013-04-26 23:15:00,
2013-04-26 17:20:00,68.7,30.5,29.90,WNW,292,15.0,20.0,24,0.00,,---,0.00,VWS V13.00,2013-04-26 23:20:00,
2013-04-26 17:25:00,68.6,30.4,29.89,WNW,293,20.0,26.0,24,0.00,,---,0.00,VWS V13.00,2013-04-26 23:25:00,
2013-04-26 17:30:00,68.3,32.1,29.89,WNW,302,18.0,26.0,26,0.00,,---,0.00,VWS V13.00,2013-04-26 23:30:00,
2013-04-26 17:35:00,68.4,32.2,29.89,West,279,20.0,26.0,26,0.00,,---,0.00,VWS V13.00,2013-04-26 23:35:00,
2013-04-26 17:40:00,68.4,32.2,29.90,West,280,17.0,21.0,26,0.00,,---,0.00,VWS V13.00,2013-04-26 23:40:00,
2013-04-26 17:45:00,68.5,32.3,29.90,WNW,285,15.0,21.0,26,0.00,,---,0.00,VWS V13.00,2013-04-26 23:45:00,
2013-04-26 17:50:00,68.4,32.2,29.90,West,281,12.0,26.0,26,0.00,,---,0.00,VWS V13.00,2013-04-26 23:50:00,
2013-04-26 18:05:00,68.2,32.0,29.90,West,278,17.0,26.0,26,0.00,,---,0.00,VWS V13.00,2013-04-27 00:05:00,
2013-04-26 18:10:00,68.2,32.0,29.90,West,276,15.0,17.0,26,0.00,,---,0.00,VWS V13.00,2013-04-27 00:10:00,
2013-04-26 18:15:00,68.0,31.9,29.90,WNW,294,15.0,23.0,26,0.00,,---,0.00,VWS V13.00,2013-04-27 00:15:00,
2013-04-26 18:20:00,67.8,31.7,29.90,WNW,300,16.0,23.0,26,0.00,,---,0.00,VWS V13.00,2013-04-27 00:20:00,
2013-04-26 18:25:00,67.5,31.4,29.90,WNW,288,18.0,25.0,26,0.00,,---,0.00,VWS V13.00,2013-04-27 00:25:00,
2013-04-26 18:30:00,67.3,32.2,29.90,WNW,296,16.0,25.0,27,0.00,,---,0.00,VWS V13.00,2013-04-27 00:30:00,
2013-04-26 18:35:00,67.0,32.0,29.90,WNW,292,24.0,25.0,27,0.00,,---,0.00,VWS V13.00,2013-04-27 00:35:00,
2013-04-26 18:40:00,66.7,31.7,29.90,WNW,291,19.0,22.0,27,0.00,,---,0.00,VWS V13.00,2013-04-27 00:40:00,
2013-04-26 18:45:00,66.6,31.6,29.90,WNW,294,24.0,24.0,27,0.00,,---,0.00,VWS V13.00,2013-04-27 00:45:00,
2013-04-26 18:50:00,66.2,32.2,29.90,WNW,299,21.0,24.0,28,0.00,,---,0.00,VWS V13.00,2013-04-27 00:50:00,
2013-04-26 18:55:00,65.8,32.7,29.90,WNW,296,22.0,24.0,29,0.00,,---,0.00,VWS V13.00,2013-04-27 00:55:00,
2013-04-26 19:00:00,65.4,31.5,29.90,WNW,303,21.0,26.0,28,0.00,,---,0.00,VWS V13.00,2013-04-27 01:00:00,
2013-04-26 19:05:00,65.1,32.9,29.90,NW,304,20.0,26.0,30,0.00,,---,0.00,VWS V13.00,2013-04-27 01:05:00,
2013-04-26 19:10:00,64.9,32.8,29.89,NW,307,20.0,26.0,30,0.00,,---,0.00,VWS V13.00,2013-04-27 01:10:00,
2013-04-26 19:15:00,64.7,33.4,29.89,NW,306,21.0,26.0,31,0.00,,---,0.00,VWS V13.00,2013-04-27 01:15:00,
2013-04-26 19:20:00,64.5,33.2,29.89,WNW,300,17.0,26.0,31,0.00,,---,0.00,VWS V13.00,2013-04-27 01:20:00,
2013-04-26 19:25:00,64.2,33.8,29.90,WNW,299,18.0,26.0,32,0.00,,---,0.00,VWS V13.00,2013-04-27 01:25:00,
2013-04-26 19:30:00,63.9,33.5,29.90,WNW,300,15.0,26.0,32,0.00,,---,0.00,VWS V13.00,2013-04-27 01:30:00,
2013-04-26 19:35:00,63.4,33.0,29.90,WNW,293,18.0,26.0,32,0.00,,---,0.00,VWS V13.00,2013-04-27 01:35:00,
2013-04-26 19:40:00,62.9,33.4,29.90,WNW,300,15.0,17.0,33,0.00,,---,0.00,VWS V13.00,2013-04-27 01:40:00,
2013-04-26 19:45:00,62.3,33.6,29.90,WNW,297,15.0,20.0,34,0.00,,---,0.00,VWS V13.00,2013-04-27 01:45:00,
2013-04-26 19:50:00,61.9,34.0,29.90,WNW,288,12.0,20.0,35,0.00,,---,0.00,VWS V13.00,2013-04-27 01:50:00,
2013-04-26 19:55:00,61.6,33.7,29.86,WNW,292,13.0,20.0,35,0.00,,---,0.00,VWS V13.00,2013-04-27 01:55:00,
2013-04-26 20:00:00,61.2,33.3,29.86,WNW,290,14.0,20.0,35,0.00,,---,0.00,VWS V13.00,2013-04-27 02:00:00,
2013-04-26 20:05:00,60.6,33.5,29.86,WNW,294,16.0,20.0,36,0.00,,---,0.00,VWS V13.00,2013-04-27 02:05:00,
2013-04-26 20:10:00,60.1,33.8,29.88,WNW,294,15.0,18.0,37,0.00,,---,0.00,VWS V13.00,2013-04-27 02:10:00,
2013-04-26 20:15:00,59.7,33.4,29.88,WNW,286,16.0,18.0,37,0.00,,---,0.00,VWS V13.00,2013-04-27 02:15:00,
2013-04-26 20:20:00,59.4,33.8,29.88,WNW,288,15.0,19.0,38,0.00,,---,0.00,VWS V13.00,2013-04-27 02:20:00,
2013-04-26 20:25:00,59.0,33.5,29.89,WNW,291,14.0,19.0,38,0.00,,---,0.00,VWS V13.00,2013-04-27 02:25:00,
2013-04-26 20:30:00,59.0,33.5,29.89,WNW,284,14.0,19.0,38,0.00,,---,0.00,VWS V13.00,2013-04-27 02:30:00,
2013-04-26 20:35:00,58.7,33.8,29.89,WNW,283,12.0,19.0,39,0.00,,---,0.00,VWS V13.00,2013-04-27 02:35:00,
2013-04-26 20:40:00,58.3,33.5,29.89,West,278,14.0,15.0,39,0.00,,---,0.00,VWS V13.00,2013-04-27 02:40:00,
2013-04-26 20:45:00,57.9,33.1,29.89,WNW,286,14.0,16.0,39,0.00,,---,0.00,VWS V13.00,2013-04-27 02:45:00,
2013-04-26 20:50:00,57.6,32.8,29.89,West,279,16.0,17.0,39,0.00,,---,0.00,VWS V13.00,2013-04-27 02:50:00,
2013-04-26 20:55:00,57.6,33.5,29.87,West,281,14.0,19.0,40,0.00,,---,0.00,VWS V13.00,2013-04-27 02:55:00,
2013-04-26 21:00:00,57.5,33.4,29.87,West,281,14.0,21.0,40,0.00,,---,0.00,VWS V13.00,2013-04-27 03:00:00,
2013-04-26 21:05:00,57.3,33.2,29.87,West,272,15.0,21.0,40,0.00,,---,0.00,VWS V13.00,2013-04-27 03:05:00,
2013-04-26 21:10:00,57.0,32.9,29.88,West,271,12.0,16.0,40,0.00,,---,0.00,VWS V13.00,2013-04-27 03:10:00,
2013-04-26 21:15:00,56.8,32.8,29.88,West,269,12.0,18.0,40,0.00,,---,0.00,VWS V13.00,2013-04-27 03:15:00,
2013-04-26 21:20:00,56.5,33.1,29.88,West,266,12.0,18.0,41,0.00,,---,0.00,VWS V13.00,2013-04-27 03:20:00,
2013-04-26 21:25:00,56.3,32.9,29.89,West,266,14.0,18.0,41,0.00,,---,0.00,VWS V13.00,2013-04-27 03:25:00,
2013-04-26 21:30:00,56.1,33.3,29.89,West,262,8.0,18.0,42,0.00,,---,0.00,VWS V13.00,2013-04-27 03:30:00,
2013-04-26 21:35:00,55.8,33.1,29.89,West,269,13.0,18.0,42,0.00,,---,0.00,VWS V13.00,2013-04-27 03:35:00,
2013-04-26 21:40:00,55.6,33.5,29.90,West,269,12.0,15.0,43,0.00,,---,0.00,VWS V13.00,2013-04-27 03:40:00,
2013-04-26 21:45:00,55.3,33.2,29.90,West,265,13.0,15.0,43,0.00,,---,0.00,VWS V13.00,2013-04-27 03:45:00,
2013-04-26 21:50:00,55.0,32.9,29.90,West,277,14.0,16.0,43,0.00,,---,0.00,VWS V13.00,2013-04-27 03:50:00,
2013-04-26 21:55:00,54.7,32.7,29.89,West,268,15.0,16.0,43,0.00,,---,0.00,VWS V13.00,2013-04-27 03:55:00,
2013-04-26 22:00:00,54.5,33.0,29.89,West,261,9.0,16.0,44,0.00,,---,0.00,VWS V13.00,2013-04-27 04:00:00,
2013-04-26 22:01:00,54.5,33.0,29.89,West,261,9.0,16.0,44,0.00,,---,0.00,VWS V13.00,2013-04-27 04:01:00,
2013-04-26 22:06:00,54.1,33.2,29.89,WSW,252,6.0,16.0,45,0.00,,---,0.00,VWS V13.00,2013-04-27 04:06:00,
2013-04-26 22:11:00,53.7,32.9,29.90,WSW,244,11.0,12.0,45,0.00,,---,0.00,VWS V13.00,2013-04-27 04:11:00,
2013-04-26 22:16:00,53.5,33.2,29.90,SW,229,5.0,12.0,46,0.00,,---,0.00,VWS V13.00,2013-04-27 04:16:00,
2013-04-26 22:21:00,53.0,32.8,29.90,SW,233,5.0,12.0,46,0.00,,---,0.00,VWS V13.00,2013-04-27 04:21:00,
2013-04-26 22:26:00,52.5,33.4,29.91,SW,235,4.0,12.0,48,0.00,,---,0.00,VWS V13.00,2013-04-27 04:26:00,
2013-04-26 22:31:00,52.0,32.4,29.91,SW,234,4.0,12.0,47,0.00,,---,0.00,VWS V13.00,2013-04-27 04:31:00,
2013-04-26 22:36:00,51.7,32.7,29.91,SW,234,0.0,12.0,48,0.00,,---,0.00,VWS V13.00,2013-04-27 04:36:00,
2013-04-26 22:41:00,51.4,32.9,29.92,SW,234,0.0,0.0,49,0.00,,---,0.00,VWS V13.00,2013-04-27 04:41:00,
2013-04-26 22:46:00,51.1,32.1,29.92,SW,235,0.0,5.0,48,0.00,,---,0.00,VWS V13.00,2013-04-27 04:46:00,
2013-04-26 22:51:00,51.0,32.0,29.92,SSW,210,5.0,9.0,48,0.00,,---,0.00,VWS V13.00,2013-04-27 04:51:00,
2013-04-26 22:56:00,51.4,31.9,29.90,SW,232,10.0,12.0,47,0.00,,---,0.00,VWS V13.00,2013-04-27 04:56:00,
2013-04-26 23:01:00,52.2,32.1,29.90,WSW,242,11.0,14.0,46,0.00,,---,0.00,VWS V13.00,2013-04-27 05:01:00,
2013-04-26 23:06:00,53.1,31.8,29.90,SW,214,9.0,15.0,44,0.00,,---,0.00,VWS V13.00,2013-04-27 05:06:00,
2013-04-26 23:11:00,53.7,31.8,29.89,SSW,200,12.0,15.0,43,0.00,,---,0.00,VWS V13.00,2013-04-27 05:11:00,
2013-04-26 23:16:00,54.0,32.0,29.89,SSW,211,10.0,15.0,43,0.00,,---,0.00,VWS V13.00,2013-04-27 05:16:00,
2013-04-26 23:21:00,54.1,31.5,29.89,SSW,205,10.0,15.0,42,0.00,,---,0.00,VWS V13.00,2013-04-27 05:21:00,
2013-04-26 23:26:00,54.3,31.7,29.88,SW,214,7.0,15.0,42,0.00,,---,0.00,VWS V13.00,2013-04-27 05:26:00,
2013-04-26 23:31:00,54.4,31.8,29.88,SW,227,8.0,15.0,42,0.00,,---,0.00,VWS V13.00,2013-04-27 05:31:00,
2013-04-26 23:36:00,54.0,32.0,29.88,SW,226,11.0,15.0,43,0.00,,---,0.00,VWS V13.00,2013-04-27 05:36:00,
2013-04-26 23:41:00,53.3,32.0,29.88,SSW,201,6.0,13.0,44,0.00,,---,0.00,VWS V13.00,2013-04-27 05:41:00,
2013-04-26 23:46:00,53.0,31.1,29.88,SW,219,10.0,14.0,43,0.00,,---,0.00,VWS V13.00,2013-04-27 05:46:00,
2013-04-26 23:51:00,53.2,31.3,29.88,SSW,210,7.0,14.0,43,0.00,,---,0.00,VWS V13.00,2013-04-27 05:51:00,
2013-04-26 23:56:00,53.3,31.4,29.88,SW,226,7.0,14.0,43,0.00,,---,0.00,VWS V13.00,2013-04-27 05:56:00,